Location: Unspecified
(0.0000°N, 0.0000°E)
Time: 13:43:45
(UTC+00:00)

Courier 1B Rocket - Pass Details

Date: 26 November 2019
Orbit: 920 x 1202 km, 28.2° (Epoch: 08 December)

Event Time Altitude Azimuth Distance (km) Brightness Sun altitude
Rises 22:30:45 0° 263° (W) 4,090 - -61.9°
Reaches altitude 10° 22:34:40 10° 245° (WSW) 3,131 - -62.5°
Maximum altitude 22:39:46 19° 204° (SSW) 2,528 - -63.3°
Drops below altitude 10° 22:44:50 10° 163° (SSE) 3,083 - -64.0°
Sets 22:48:41 0° 145° (SE) 4,006 - -64.6°
